Location: Unspecified
(38.0000°N, 97.0000°W)
Time: 10:15:30
(UTC+00:00)

Daily predictions for brighter satellites

Satellite Brightness Start Highest point End
(mag) Time Altitude Azimuth Time Altitude Azimuth Time Altitude Azimuth
Radarsat Rocket 4.3 12:00:51 10° NNE 12:06:54 75° ESE 12:13:33 10° S
ALOS 3.8 12:06:22 10° NNE 12:10:43 38° E 12:15:03 10° SSE
Cosmos 1758 Rocket 4.4 12:14:54 29° WSW 12:14:54 29° WSW 12:18:07 10° SSW
SKYMED 2 3.8 12:10:13 10° S 12:14:21 45° W 12:16:30 25° NW
CZ-2C R/B 4.2 12:10:08 10° SSE 12:14:51 66° ENE 12:19:35 10° N
Cosmos 2082 Rocket 4.2 12:18:47 11° SW 12:18:47 11° SW 12:19:02 10° SW
NOAA 6 4.0 12:11:10 10° N 12:16:16 58° WNW 12:21:20 10° SSW
USA 234 3.2 12:12:21 10° NE 12:18:54 78° NW 12:25:25 10° SW
Cosmos 1464 Rocket 4.2 12:13:39 10° NNW 12:19:43 48° W 12:25:44 10° SSW
Cosmos 1626 2.1 12:18:35 10° N 12:22:19 85° E 12:26:00 10° S
Tsikada Rocket 3.9 12:16:11 10° S 12:22:20 78° W 12:28:31 10° N
Meteor 2-20 4.3 12:18:10 10° SSW 12:24:13 73° W 12:30:18 10° N
Timation 2 Rocket 4.3 12:18:50 10° NNW 12:24:51 66° ENE 12:31:02 10° SSE
CZ-4C R/B 3.9 12:26:21 15° NW 12:26:50 15° NNW 12:30:07 10° N
BREEZE-M DEB 3.8 12:14:54 10° SW 12:26:57 87° SE 12:30:20 10° NE
Cosmos 1816 Rocket 4.4 12:22:12 10° SSW 12:28:17 71° W 12:34:26 10° N
Cosmos 2369 Rocket 2.4 12:24:02 10° SW 12:29:30 46° WNW 12:34:59 10° N
IRS-1C Rocket 4.3 12:27:10 10° N 12:32:13 48° WNW 12:37:15 10° SW
Cosmos 1812 Rocket 4.0 12:29:04 10° S 12:33:25 66° E 12:37:46 10° NNE
Cosmos 1110 Rocket 4.1 12:28:40 10° NNW 12:33:56 78° ENE 12:39:11 10° SSE
USA 81 4.4 12:30:20 10° SSW 12:35:18 43° W 12:40:20 10° N
Shenzhou-11 Module 2.4 12:34:51 26° NW 12:36:10 48° NNE 12:38:58 10° E
Hubble Space Telescope 3.3 12:34:38 10° SSW 12:37:10 16° SSE 12:39:41 10° SE
Cosmos 1867 3.6 12:34:49 10° NNW 12:40:20 88° ENE 12:45:46 10° SSE
Cosmos 1726 4.1 12:37:14 10° SSE 12:40:32 32° E 12:43:51 10° NNE
Cosmos 2263 4.3 12:35:43 10° SW 12:41:10 51° WNW 12:46:40 10° NNE
NOSS 3-4 (A) 3.9 12:34:51 10° NW 12:42:00 76° WSW 12:49:44 10° SSE
Cosmos 1484 Rocket 3.6 12:38:32 10° N 12:42:02 29° WNW 12:45:30 10° SW
NOSS 3-4 (C) 3.9 12:34:57 10° NW 12:42:07 76° WSW 12:49:50 10° SSE
BREEZE-M DEB (TANK) 4.2 12:42:34 10° NNW 12:43:23 11° NNW 12:44:06 10° N
Cosmos 1331 Rocket 4.1 12:39:10 10° NNW 12:44:29 86° ENE 12:49:47 10° SSE
Lacrosse 5 rocket 2.3 12:42:15 10° SSW 12:46:22 53° SE 12:50:44 10° NE
SMAP 3.2 12:45:07 10° NNE 12:49:48 82° ESE 12:54:26 10° S
Cosmos 2058 Rocket 4.2 12:46:19 10° SW 12:49:49 22° WNW 12:53:22 10° NNW
ATLAS CENTAUR R/B 4.0 12:32:44 10° SW 12:50:24 68° NW 12:56:22 10° NE
METEOR-M 4.1 12:45:37 10° N 12:50:57 70° WNW 12:56:15 10° SSW
Cosmos 1656 Rocket 3.7 12:45:34 10° SSW 12:51:15 86° WNW 12:56:59 10° NNE
Cosmos 44 Rocket 4.0 12:47:36 12° NW 12:51:51 37° WSW 12:56:20 10° S
Aureole 1 Rocket 3.5 12:47:54 10° SSW 12:52:21 61° WNW 12:58:20 10° NNE
ERBS 4.2 12:53:05 13° NW 12:54:03 15° NW 12:56:01 10° N
Cosmos 1953 3.9 12:59:17 10° WSW 13:01:40 15° WNW 13:04:04 10° NW
COSMO-SKYMED 1 4.4 13:00:46 10° WSW 13:02:47 13° W 13:04:47 10° WNW
ASTEX 1 3.4 12:58:32 10° N 13:03:29 72° W 13:08:23 10° SSW
Cosmos 1441 Rocket 3.3 13:00:05 10° SSW 13:03:59 59° W 13:07:56 10° N
Lacrosse 4 Rocket 2.7 13:00:32 10° NNW 13:04:33 40° ENE 13:08:36 10° SE
H-2A R/B 4.0 13:02:39 10° NNE 13:06:13 44° E 13:09:46 10° S
Cosmos 1238 Rocket 2.5 13:06:30 10° N 13:09:51 73° W 13:13:49 10° S
Cosmos 2279 Rocket 4.3 13:04:28 10° N 13:10:43 76° E 13:16:53 10° S
